COSMOS 397 DEB, 5280

Orbit data source: Space-Track

COSMOS 397 DEB, 5280 is space debris in LEO originally from a launch on Thu, 25 Feb 1971 UTC launched from the Tyuratam Missile And Space Complex (TTMTR). Debris objects in space refer to the collection of defunct objects orbiting the Earth. Examples of debris include non-operational satellites, rocket bodies, and fragments generated from explosions, collisions, or faulty payload assembly.

Loading next visibility...
Identifier
5280, 1971-015BF
Orbit
LEO
Country
Flag of CISCIS
Related business
Manufacturer
Unknown
Mission
Spacecraft
Bus & Motor
Unknown
Mass
Unknown
Launch date (UTC)
1971-02-25 (55 years ago)
Launch vehicle
Unknown
Launch site
Tyuratam Missile And Space Complex (TTMTR)
Object type
Payload
Rocket body
Debris
Shape & HBR
Unknown shape, 0.1 m
Radar Cross Section
Small (<0.1 m²)

Expand to show TLE details & history
Last TLE update: 14 hours ago

TLE from 14 hours ago
0 COSMOS 397 DEB
1 05280U 71015BF  25349.93673254  .00003491  00000-0  12118-2 0  9993
2 05280  65.6575 313.8875 0730657  16.5538 345.8049 13.42894138618597
Epoch: 2025-12-15T22:28Z
TLE epoch observation values (Epoch: 2025-12-15T22:28:53.691Z)
Latitude
-0.00001°
Longitude
-108.16436°
Altitude
573.481 km
Speed
7.837 km/s
True Right ascension
20h 55m 32s
True Declination
0° 00' 00"
Sunlit
Object was in daylight at epoch
Visualization orbit readout
Latitude
Unknown
Longitude
Unknown
Altitude
Unknown
Speed
Unknown
Apparent Right ascension
Unknown
Apparent Declination
Unknown
Sunlit
N/A
Visualization observer readout
Local Sidereal Time
11:27:11
Azimuth
Unknown
Elevation
Unknown
Doppler factor
Unknown
Orbital elements
Apogee altitude
1,643.248 km
Perigee altitude
550.886 km
Semi-major axis
7,475.204 km
Eccentricity
0.07307
Inclination
65.6575°
RAAN
313.8875°
Arg. of periapsis
16.5538°
True anomaly
343.5537°
Mean anomaly
345.8049°
Eccentric anomaly
344.70025°
Mean motion
3.35822 °/min
Orbital period
107.2 mins
BSTAR
0.0012118
Loading maneuver chart data...
Computing Atmospheric mass density...
Loading historical data...
Loading historical data...
Loading historical data...
Loading historical data...
Loading historical data...
Loading historical data...
Loading historical data...

Documentation

Showing up to 5 results
|